Flag for U.S.A. Weather past 2 weeks in Jackson, Wyoming, U.S.A.

Now
84 °F

Sunny.


Feels Like: 81 °F
Forecast: 52 / 85 °F
Wind: 9 mph from Northwest

Location: Jackson Hole

Current Time: Jul 1, 2015 at 7:35:41 PM

Latest Report: Jul 1, 2015 at 6:55 PM


Visibility: 10 mi

Pressure: 30.17 "Hg

Humidity: 16%

Dew point: 34 °F

Location of JacksonLocation

Historic Weather in Jackson — Graph

°F

Jackson temperature yesterday

Maximum temperature yesterday: 84 °F (at 2:55 PM)
Minimum temperature yesterday: 54 °F (at 5:55 AM)
Average temperature yesterday: 68 °F

Past Weeks' High & Low Weather Summary

 TemperatureHumidityPressure
High88 °F (Jun 27, 3:15 PM)100% (Jun 17, 6:51 AM)30.44 "Hg (Jun 17, 6:51 AM)
Low37 °F (Jun 23, 4:55 AM)12% (Jun 26, 5:15 PM)29.99 "Hg (Jun 21, 2:15 PM)
Average65 °F47%30.22 "Hg
* Reported Jun 16 6:51 PM — Jul 1 6:35 PM, Jackson, Weather by CustomWeather, © 2015

Note: Actual official high and low records may vary slightly from our data, if they occured in-between our weather recording intervals... More about our weather records

Advertising

Jackson weather history for previous 24 hours

 ConditionsComfort  
Time TempWeatherWind HumidityBarometerVisibility
6:35 PM
Wed, Jul 1
84 °FSunny.12 mph16%30.17 "Hg10 mi
6:15 PM84 °FPassing clouds.13 mph16%30.17 "Hg10 mi
5:55 PM84 °FPassing clouds.10 mph20%30.18 "Hg10 mi
5:35 PM84 °FScattered clouds.7 mph25%30.18 "Hg10 mi
5:15 PM84 °FSunny.7 mph27%30.18 "Hg10 mi
4:55 PM84 °FPassing clouds.12 mph25%30.18 "Hg10 mi
4:35 PM84 °FScattered clouds.7 mph25%30.19 "Hg10 mi
3:55 PM84 °FSunny.9 mph20%30.19 "Hg10 mi
3:15 PM84 °FSunny.10 mph25%30.20 "Hg10 mi
2:55 PM84 °FSunny.14 mph22%30.20 "Hg10 mi
2:35 PM84 °FScattered clouds.7 mph23%30.21 "Hg10 mi
2:15 PM82 °FScattered clouds.7 mph32%30.21 "Hg9 mi
1:55 PM82 °FSunny.No wind32%30.22 "Hg9 mi
1:35 PM81 °FSunny.7 mph37%30.22 "Hg10 mi
1:15 PM82 °FSunny.6 mph37%30.23 "Hg10 mi
12:55 PM79 °FPassing clouds.8 mph45%30.23 "Hg10 mi
12:35 PM79 °FSunny.7 mph42%30.23 "Hg10 mi
12:15 PM79 °FSunny.8 mph42%30.24 "Hg10 mi
11:55 AM75 °FSunny.7 mph47%30.24 "Hg10 mi
11:35 AM73 °FSunny.No wind50%30.24 "Hg10 mi
11:15 AM72 °FSunny.3 mph50%30.25 "Hg10 mi
10:55 AM72 °FScattered clouds.3 mph50%30.25 "Hg10 mi
10:35 AM70 °FPartly sunny.No wind53%30.25 "Hg10 mi
10:15 AM68 °FScattered clouds.No wind56%30.25 "Hg10 mi
9:55 AM66 °FScattered clouds.No wind56%30.25 "Hg10 mi
9:35 AM64 °FSunny.No wind60%30.26 "Hg10 mi
9:15 AM63 °FSunny.No wind59%30.27 "Hg10 mi
8:55 AM61 °FPassing clouds.No wind63%30.27 "Hg10 mi
8:35 AM57 °FScattered clouds.No wind82%30.27 "Hg10 mi
8:15 AM55 °FPassing clouds.No wind82%30.27 "Hg10 mi
7:55 AM55 °FPartly sunny.No wind77%30.28 "Hg10 mi
7:35 AM54 °FScattered clouds.No wind82%30.28 "Hg10 mi
7:15 AM54 °FPartly sunny.No wind82%30.27 "Hg10 mi
6:55 AM52 °FPartly sunny.No wind88%30.27 "Hg10 mi
6:35 AM52 °FPassing clouds.No wind82%30.27 "Hg10 mi
6:15 AM52 °FClear.5 mph82%30.26 "Hg10 mi
5:55 AM48 °FClear.No wind94%30.26 "Hg10 mi
5:35 AM52 °FClear.3 mph88%30.26 "Hg10 mi
5:15 AM52 °FClear.6 mph82%30.25 "Hg10 mi
4:55 AM52 °FClear.6 mph88%30.26 "Hg10 mi
4:35 AM54 °FClear.No wind82%30.25 "Hg10 mi
4:15 AM54 °FPassing clouds.6 mph82%30.25 "Hg10 mi
3:55 AM54 °FOvercast.No wind88%30.26 "Hg10 mi
3:35 AM54 °FOvercast.3 mph88%30.26 "Hg10 mi
3:15 AM54 °FPassing clouds.No wind82%30.26 "Hg10 mi
2:55 AM54 °FClear.5 mph88%30.25 "Hg10 mi
2:35 AM55 °FPassing clouds.5 mph82%30.25 "Hg10 mi
2:15 AM54 °FPassing clouds.8 mph94%30.25 "Hg10 mi
1:55 AM54 °FPassing clouds.5 mph82%30.25 "Hg10 mi
1:35 AM52 °FClear.3 mph88%30.25 "Hg10 mi
1:15 AM54 °FClear.No wind82%30.26 "Hg10 mi
12:55 AM52 °FClear.6 mph88%30.25 "Hg10 mi
12:35 AM54 °FClear.5 mph88%30.25 "Hg10 mi
12:15 AM54 °FClear.8 mph94%30.24 "Hg10 mi
11:55 PM
Tue, Jun 30
55 °FClear.5 mph94%30.24 "Hg10 mi
11:35 PM57 °FClear.6 mph88%30.24 "Hg10 mi
11:15 PM57 °FClear.No wind88%30.24 "Hg10 mi
10:15 PM63 °FClear.No wind77%30.23 "Hg10 mi
9:55 PM64 °FSunny.No wind78%30.22 "Hg10 mi
9:35 PM66 °FSunny.3 mph73%30.21 "Hg10 mi
9:15 PM66 °FSunny.No wind73%30.21 "Hg10 mi
8:55 PM66 °FSunny.No wind73%30.21 "Hg10 mi
8:35 PM70 °FSunny.7 mph73%30.21 "Hg10 mi
8:15 PM70 °FSunny.No wind73%30.21 "Hg10 mi
7:57 PM70 °FSunny.No wind73%30.20 "Hg10 mi
7:35 PM70 °FSunny.No wind73%30.20 "Hg10 mi
7:15 PM72 °FSunny.8 mph57%30.20 "Hg10 mi
Weather by CustomWeather, © 2015

See weather overviewHow to use our weather pages